Theta_e
319 325 333 337 340 340 342 340 341 345 346 345 344 343 344 344 346 349 347 339 343 343 342 341 341 341 341 340 339 339 338 340 340 338 334 330 327 323 318 315 316 316 317 319 320 322 323 324 324
317 321 326 336 341 345 344 341 340 339 342 345 347 346 346 345 347 347 348 349 341 343 340 341 342 342 340 339 337 336 336 335 335 333 330 328 324 318 315 315 316 317 319 321 324 325 324 324 323
318 323 325 333 337 343 345 341 339 338 342 344 347 345 345 344 343 349 348 344 339 340 337 337 339 340 339 337 335 334 333 331 329 329 328 326 319 315 315 316 316 318 320 324 325 325 325 325 324
326 327 326 333 338 339 342 340 339 339 340 340 341 345 344 343 346 349 348 346 343 338 336 336 336 337 337 335 335 335 332 329 329 328 326 322 316 315 316 316 317 318 321 324 324 324 325 325 325
329 328 326 334 340 339 338 338 337 340 339 340 342 345 342 343 345 346 348 345 343 341 338 337 335 334 333 333 335 334 328 327 327 326 322 316 314 316 317 317 317 318 320 322 323 325 325 325 325
325 326 331 340 339 336 335 336 336 335 339 341 345 345 344 346 346 347 346 347 344 343 342 337 333 331 331 331 332 330 327 327 327 322 316 314 315 316 317 317 318 319 320 321 323 324 325 325 325
323 321 326 338 340 339 339 337 336 335 339 337 341 344 345 344 344 345 344 343 342 343 342 340 339 337 330 332 332 330 329 326 320 315 313 314 316 317 318 318 319 320 321 321 322 324 325 326 326
325 321 329 334 343 341 335 338 338 342 340 337 341 343 344 344 343 342 340 340 340 340 342 341 339 338 338 333 333 329 328 320 314 313 314 315 316 318 319 319 320 321 323 323 323 324 326 327 327
326 325 327 331 338 343 338 345 346 345 344 342 343 343 343 343 342 341 339 339 339 339 339 340 339 337 337 336 334 331 325 315 315 319 316 318 320 326 326 327 329 328 329 327 324 327 327 327 326
327 328 333 332 337 341 337 334 340 346 344 342 342 341 341 341 340 339 338 338 337 336 337 337 337 337 337 337 336 334 329 319 327 328 329 325 324 330 330 331 330 330 328 329 327 328 328 328 327
332 331 335 340 344 337 336 337 339 341 342 340 341 339 339 338 337 337 336 335 335 335 335 336 335 334 335 336 336 335 331 325 327 329 331 331 328 330 329 330 329 331 330 330 330 329 328 328 327
334 338 344 343 345 344 340 340 339 339 339 339 336 336 336 335 335 334 334 333 333 332 332 333 334 333 333 333 332 331 331 330 328 327 327 329 329 327 331 330 330 330 328 327 325 329 328 328 327
332 340 343 339 339 339 339 338 338 339 338 337 336 335 335 335 335 335 335 332 331 331 330 329 330 330 330 331 330 330 330 330 328 327 329 330 330 328 325 325 324 325 326 324 326 328 328 327 327
335 337 337 335 337 341 339 338 336 337 336 334 333 334 333 333 333 333 332 330 329 326 325 324 323 322 322 323 324 327 325 324 326 325 325 324 324 323 322 321 323 324 325 326 327 325 325 326 326
333 333 335 332 333 335 338 339 338 336 334 332 331 330 330 330 330 329 327 324 323 323 324 321 318 318 318 317 320 320 319 318 319 319 317 318 318 319 321 323 322 322 323 323 323 324 324 324 320
333 336 337 332 332 333 332 335 336 336 333 331 329 328 328 328 327 324 324 324 323 320 321 320 316 317 317 316 318 318 317 318 318 319 319 318 316 313 314 317 316 316 316 316 318 320 320 320 319
334 337 336 336 333 333 332 339 336 336 332 331 328 327 327 326 324 324 323 322 321 321 320 319 319 317 315 315 316 316 316 316 316 318 318 315 313 313 312 314 312 315 316 317 317 317 316 316 317
336 335 334 336 333 332 332 335 339 333 332 330 329 328 326 324 324 324 323 322 322 321 321 320 319 317 314 313 315 313 313 315 317 319 316 314 314 314 312 312 311 312 314 315 317 317 318 317 318
334 334 336 334 333 333 338 340 335 332 332 330 330 329 325 326 326 325 325 323 323 322 321 320 318 315 315 314 313 314 314 314 314 313 313 314 313 311 311 309 310 311 312 313 314 315 316 317 318
332 331 334 333 333 334 330 330 334 331 333 331 331 329 327 327 327 325 325 324 323 323 321 318 318 316 316 315 313 311 313 311 312 312 312 311 311 311 310 309 309 311 311 312 313 315 315 316 317
329 329 328 329 329 334 333 333 331 332 332 331 332 330 329 327 326 324 323 322 321 320 318 318 318 316 315 313 310 311 311 311 312 311 311 311 312 311 310 311 311 311 311 311 313 313 314 314 316
328 330 331 330 328 329 333 338 335 330 329 332 331 328 326 325 323 322 320 319 320 317 317 316 315 314 312 310 310 311 312 311 311 311 312 312 312 312 312 311 311 312 310 310 311 312 312 313 315
329 327 328 328 327 331 336 339 336 329 330 332 330 326 325 323 322 320 320 319 318 318 318 315 314 312 311 310 311 310 309 309 310 310 310 311 310 310 310 311 310 310 310 311 312 312 312 313 314
328 328 327 326 325 335 336 336 336 335 334 330 324 323 323 322 322 321 321 318 316 316 315 314 313 311 311 311 310 309 309 309 309 308 308 307 308 309 309 309 310 310 311 311 312 311 311 312 313
328 325 326 325 325 337 334 333 335 333 331 329 325 324 324 322 321 320 319 316 315 314 313 312 312 312 311 309 308 308 308 307 306 306 306 307 307 309 308 309 310 311 311 310 309 311 311 312 312
327 324 323 325 326 327 334 339 332 330 330 329 327 324 323 322 320 318 316 315 314 313 313 312 311 311 308 308 308 308 306 306 306 305 305 305 307 307 308 310 310 310 310 309 308 309 309 311 312
327 326 325 324 324 333 335 332 331 330 329 327 324 322 321 319 316 315 314 313 311 311 310 309 309 308 308 308 307 307 305 305 305 304 304 304 306 308 308 309 309 309 309 308 308 310 311 312 312
326 326 327 326 332 335 334 330 333 330 326 322 323 320 319 318 314 313 312 311 310 309 309 307 308 308 308 307 307 306 304 305 305 304 304 305 307 308 307 306 307 308 308 308 309 309 311 311 311
325 325 327 327 330 333 334 332 326 325 322 319 319 318 316 314 313 312 311 310 309 308 308 307 308 307 308 307 307 306 306 305 305 304 304 305 307 308 308 308 308 308 309 309 310 310 310 311 311
325 325 326 328 330 329 329 331 324 323 322 320 319 318 314 313 312 311 310 309 308 307 307 307 308 308 309 308 307 307 306 306 306 306 305 306 305 306 307 307 308 307 308 308 308 308 309 310 310
Wind_Speed
12 7 9 2 5 4 4 7 13 22 24 35 37 26 24 24 7 9 13 23 16 17 16 12 12 11 10 10 10 8 7 6 4 5 6 7 8 10 12 13 14 16 17 17 17 16 16 16 15
8 6 9 1 4 3 8 13 16 14 19 25 30 24 25 19 24 22 21 14 12 16 13 12 11 11 10 8 8 7 5 3 2 4 5 7 9 10 12 13 14 15 15 16 16 16 17 17 18
1 4 1 5 4 5 2 9 15 14 36 24 14 30 13 14 15 18 21 15 19 16 12 11 10 10 9 8 8 6 5 4 3 4 5 7 9 10 11 12 13 13 13 14 14 14 14 15 16
1 3 6 5 6 7 7 13 18 10 22 22 15 10 28 20 26 25 18 19 18 16 14 11 9 9 8 8 7 6 4 3 4 5 6 7 8 9 10 10 10 10 10 11 10 10 11 14 15
3 5 0 9 7 3 6 13 14 10 11 20 6 12 22 21 23 20 18 17 17 16 14 12 10 9 8 7 6 4 4 3 4 5 6 7 8 8 8 8 7 6 6 6 6 9 11 12 14
4 4 2 11 9 13 6 4 9 13 16 19 18 10 14 29 28 25 25 22 18 18 16 16 12 9 8 6 5 5 4 4 4 5 5 6 7 6 6 5 4 3 2 2 3 6 8 11 11
8 2 5 19 16 7 7 6 21 12 12 8 7 6 13 27 25 26 24 21 22 21 16 15 13 11 8 7 6 7 6 5 4 4 5 5 4 2 1 2 3 2 2 3 5 6 8 8 10
23 4 4 14 18 8 6 12 20 4 2 18 15 3 15 26 31 29 30 26 23 21 19 14 13 9 7 6 6 6 6 5 5 5 4 4 3 1 4 6 7 7 5 9 9 8 6 5 6
20 4 3 5 8 6 12 13 22 17 28 10 15 26 27 27 29 27 27 22 21 17 16 12 11 9 6 6 7 5 5 6 6 7 5 3 3 4 5 5 6 9 12 10 6 1 3 3 3
6 3 4 17 15 20 22 23 23 11 14 22 23 26 23 22 21 25 21 19 15 12 12 15 11 12 8 6 6 7 7 4 2 1 1 5 8 8 11 10 10 15 13 14 10 7 5 6 4
2 2 11 29 39 39 22 13 5 15 11 10 13 23 21 24 24 25 22 16 17 15 14 17 19 17 14 10 6 2 4 6 10 11 7 12 14 14 13 16 23 16 22 20 15 10 8 11 9
5 27 35 23 22 22 15 14 21 19 11 14 17 22 24 26 24 23 20 18 15 12 9 7 11 11 9 7 7 3 2 4 6 7 8 11 14 16 12 8 6 10 8 11 18 9 10 16 15
12 22 42 38 32 34 29 21 20 19 17 18 18 21 24 25 24 23 21 17 15 16 16 15 12 11 10 6 5 3 2 5 10 10 10 9 9 13 14 15 15 17 20 18 15 13 15 20 20
19 36 25 28 33 18 22 11 10 12 21 24 24 23 19 17 16 17 16 16 16 15 17 12 12 13 10 9 7 6 7 10 12 14 14 16 16 17 19 19 17 17 15 16 19 20 22 24 26
31 8 6 16 14 2 4 8 7 13 22 22 19 17 16 16 15 17 17 18 17 16 13 13 12 11 12 10 11 13 15 16 15 18 14 12 13 16 16 16 16 16 17 18 18 21 24 23 19
8 8 6 7 3 7 5 3 13 16 23 20 15 14 16 18 19 19 17 16 15 14 14 15 14 12 10 10 6 10 11 15 17 18 16 16 20 19 15 10 10 9 11 13 16 16 17 23 20
4 3 2 8 12 7 4 5 21 21 23 17 16 14 17 19 18 16 15 16 13 13 11 12 13 16 16 8 8 7 7 9 15 13 14 16 18 17 17 15 18 16 13 14 13 15 15 15 14
6 7 6 7 4 14 14 14 24 27 24 15 14 14 14 17 16 15 14 13 11 10 9 11 15 20 22 13 10 17 16 9 12 4 6 10 12 15 14 17 19 20 16 14 15 18 16 14 11
19 11 11 11 12 6 23 19 24 26 14 17 12 13 12 14 14 12 10 9 7 7 6 10 14 18 18 12 15 15 15 17 9 10 10 8 13 19 18 21 18 17 16 13 12 15 14 14 12
8 5 4 5 6 17 23 20 14 13 14 10 15 13 11 10 10 7 7 7 7 5 7 13 13 12 12 11 20 20 16 16 16 17 14 14 14 15 20 17 18 15 16 16 14 14 15 15 10
7 7 7 6 2 16 21 12 6 8 10 7 12 13 14 13 10 8 7 6 4 7 11 11 7 8 13 21 23 19 17 13 15 17 14 16 15 11 14 15 20 18 13 16 16 14 12 13 6
7 8 9 10 8 5 1 5 7 5 5 7 16 16 15 12 9 7 5 8 8 9 7 11 9 15 19 22 24 22 19 19 17 17 17 15 9 8 12 15 17 13 13 13 12 10 9 7 4
5 11 10 14 12 5 5 7 3 5 3 3 13 16 14 9 7 4 8 11 10 8 9 11 14 18 24 21 19 21 20 16 12 12 12 10 8 14 16 16 13 12 11 9 8 6 5 4 4
9 11 10 6 5 5 8 7 7 4 3 6 16 15 10 5 3 3 9 10 10 7 9 10 16 22 21 21 22 21 16 16 16 17 16 14 10 10 12 12 10 7 7 6 5 4 3 3 4
10 8 4 6 5 3 4 12 3 5 6 15 14 12 7 12 13 8 9 9 11 13 13 15 19 20 21 21 19 21 21 18 17 16 16 14 11 11 11 10 7 6 6 6 6 5 4 2 2
6 6 3 4 3 3 9 6 1 4 15 18 14 14 12 8 5 8 7 12 18 13 11 14 17 19 20 19 20 21 20 21 20 17 16 12 10 10 8 6 5 7 6 6 11 7 5 6 5
6 5 5 1 6 6 4 3 3 5 11 16 15 16 10 11 13 16 19 19 16 16 19 23 20 20 19 21 21 22 22 17 16 17 16 11 7 8 10 7 5 6 6 10 14 14 12 10 10
7 5 7 5 3 4 4 2 2 4 8 11 14 13 11 13 17 18 15 12 13 17 19 22 17 16 18 23 25 22 21 19 17 18 13 11 10 8 7 10 9 5 7 10 15 16 17 14 12
6 6 6 2 5 3 2 1 4 7 13 10 15 15 14 18 19 16 15 14 17 21 16 17 16 18 19 23 23 19 17 18 22 17 14 12 10 12 10 10 10 10 7 8 10 11 12 14 14
8 7 5 4 2 4 4 1 7 16 17 21 15 10 15 12 12 14 13 16 18 19 16 15 17 18 20 21 25 20 18 16 15 18 14 12 9 8 9 9 8 7 5 5 7 7 8 8 8
Wind_Direction
309 305 339 2 26 56 305 303 74 78 75 77 70 76 66 59 75 114 120 116 108 113 112 114 107 101 99 96 102 111 114 112 84 76 84 96 102 105 109 109 105 102 100 94 86 79 73 67 63
306 332 301 210 88 29 7 338 59 64 62 53 69 76 73 72 95 114 108 95 84 102 109 105 102 102 98 101 106 112 112 111 100 103 110 116 122 124 122 116 112 110 104 96 88 80 73 66 61
284 254 200 103 98 84 220 307 308 61 61 56 61 51 66 84 95 118 126 107 90 96 94 100 100 95 101 107 113 119 124 118 129 124 124 130 133 129 124 120 118 114 107 98 88 77 67 57 53
92 294 275 113 141 89 145 258 261 84 69 56 345 42 67 91 104 121 117 102 92 91 92 89 89 97 105 109 113 124 128 117 130 129 136 142 142 135 131 127 125 120 116 103 84 68 55 46 46
292 258 242 56 77 92 112 235 274 68 79 53 74 111 91 93 107 105 98 84 76 72 73 84 85 90 102 108 112 85 86 112 130 138 144 147 145 143 141 139 136 132 131 111 69 50 40 33 38
259 218 357 104 94 73 51 332 47 68 73 83 106 102 94 119 112 102 101 95 72 68 67 63 65 71 80 86 79 56 70 85 105 127 140 147 150 156 158 162 169 174 151 99 33 23 22 21 31
214 98 232 123 114 122 258 98 52 39 97 90 150 132 104 102 105 106 98 83 76 68 61 45 52 58 76 79 80 72 64 75 97 118 132 139 140 161 197 247 268 275 291 311 325 346 358 19 36
248 110 309 110 127 170 240 79 101 10 241 130 148 147 108 114 110 110 101 92 97 89 82 57 45 43 60 66 80 72 67 64 75 80 87 94 77 30 310 289 294 297 332 327 322 341 360 61 48
269 21 246 87 146 119 172 110 103 95 95 105 107 93 100 117 125 120 115 105 101 92 87 88 64 50 56 73 73 78 85 96 110 108 117 151 199 194 285 268 301 306 298 302 311 84 106 100 81
148 79 357 141 115 164 144 122 146 121 99 64 73 79 103 113 106 102 100 91 82 90 80 71 73 69 64 65 80 72 59 76 69 305 157 227 230 246 254 271 259 273 277 272 253 200 212 213 258
24 248 80 107 123 126 114 117 99 116 70 77 92 86 98 91 90 88 85 89 91 91 94 79 78 76 76 82 92 135 204 215 257 256 250 234 245 253 265 256 295 250 260 265 236 198 250 255 255
71 65 74 72 96 113 104 101 72 83 99 105 101 103 97 88 89 92 93 95 92 81 72 80 79 80 85 92 85 75 272 297 280 273 266 247 257 259 278 290 249 221 278 288 301 247 248 276 255
62 70 76 64 62 76 85 80 99 103 105 102 97 89 89 90 93 100 93 97 91 82 65 57 67 66 63 71 65 93 356 306 280 276 273 269 267 280 298 294 283 268 283 287 278 255 254 270 259
81 76 72 46 50 84 93 95 13 114 114 101 96 96 99 99 96 98 89 81 78 77 70 63 56 58 53 48 32 6 346 321 315 308 293 295 292 284 282 284 287 289 280 273 269 274 276 277 279
46 40 102 31 71 120 354 54 77 144 115 104 104 105 107 102 102 91 88 86 79 75 70 48 46 46 41 33 21 10 354 353 349 347 341 317 331 322 305 290 290 297 298 297 294 285 281 277 279
59 64 17 290 13 121 84 261 148 154 114 103 97 95 100 98 98 99 96 86 73 61 54 50 44 38 37 31 35 11 353 344 336 326 328 328 331 330 319 328 336 324 323 312 297 289 282 282 284
64 134 247 291 287 103 114 226 170 159 119 116 115 114 109 108 107 104 93 78 67 57 46 35 39 25 21 30 18 338 325 348 345 313 317 318 333 344 336 327 331 315 314 309 307 307 305 288 289
138 125 240 233 253 210 179 239 170 128 108 120 116 118 117 117 108 98 75 62 71 47 43 34 19 8 6 18 8 4 1 335 357 307 306 321 319 320 318 312 312 300 311 324 327 322 321 311 317
136 150 179 232 250 49 96 85 67 90 122 133 129 131 139 118 102 89 101 73 54 41 48 15 6 9 6 29 11 358 350 336 1 4 352 326 317 310 312 312 302 298 293 296 309 313 314 316 305
109 85 202 169 219 106 87 85 93 106 117 141 148 151 146 119 103 110 99 64 62 55 7 5 7 16 10 4 355 352 328 317 322 318 329 326 329 330 322 315 314 310 297 296 292 297 305 307 283
60 36 351 327 297 98 117 82 71 70 104 144 133 126 132 132 113 115 105 90 50 351 18 21 9 6 346 348 353 345 333 321 321 322 316 320 316 312 324 315 324 317 314 309 302 300 301 305 281
360 6 336 326 334 250 248 107 52 73 53 66 111 112 120 128 120 102 73 355 49 56 42 357 354 353 355 355 348 343 348 339 325 322 318 318 323 307 309 309 323 316 323 316 315 313 304 294 272
13 359 344 318 305 110 19 82 79 354 68 126 122 126 124 137 128 64 54 44 53 42 7 3 358 352 346 345 347 344 342 343 340 336 332 326 315 308 313 317 325 318 322 326 334 327 306 282 236
14 12 326 3 3 62 347 110 34 18 121 110 121 130 140 147 55 56 37 54 43 12 0 337 340 346 349 348 346 344 347 347 343 334 328 324 309 306 324 326 332 341 337 340 340 323 297 246 231
7 25 326 11 2 81 117 62 100 155 110 136 140 148 106 84 80 64 56 58 12 21 1 350 346 346 347 351 352 351 349 346 343 343 345 338 326 318 338 343 1 8 14 12 1 332 315 41 101
33 69 100 316 295 190 16 61 266 115 135 137 139 118 125 110 52 39 73 50 35 29 16 2 354 353 7 11 355 351 356 348 351 355 351 349 343 348 354 20 41 45 22 21 26 23 75 96 92
347 22 274 221 274 78 105 106 323 185 133 130 116 110 101 90 91 90 67 55 35 14 2 2 6 15 6 2 355 351 349 355 359 354 353 356 21 61 56 41 59 66 49 44 37 61 70 89 98
80 355 14 351 14 82 72 36 133 134 121 100 118 115 107 116 81 79 66 48 21 11 7 2 25 13 5 6 360 7 18 13 6 4 19 31 47 79 70 62 59 69 54 65 66 67 63 66 81
17 24 10 37 61 118 106 75 201 135 132 143 107 112 88 80 90 65 44 22 16 9 16 15 24 19 7 3 7 9 13 25 24 34 35 47 53 60 57 51 53 45 53 57 54 49 58 63 64
70 57 64 79 317 108 116 68 118 104 115 110 110 109 102 96 76 52 26 11 13 15 17 32 23 12 8 4 15 22 19 16 22 31 46 52 56 64 54 47 42 34 37 43 77 62 56 53 59